Preview of NWS' New Version of Forecast
This preview is not operational and should not be used for support decisions.

Regional Weather Roundup (RWR)

Issued by National Weather Service (NWS)

                            
000
ASUS44 KMEG 221300
RWRTN 
TENNESSEE HOURLY STATE WEATHER ROUNDUP
NATIONAL WEATHER SERVICE MEMPHIS TN
800 AM CDT WED MAY 22 2019

TNZ002-004-019-021-049-052-054-088>092-221400-
WEST TENNESSEE
  
CITY           SKY/WX    TMP DP  RH WIND       PRES   REMARKS
MEMPHIS INTL   CLOUDY    76  71  85 SW12G21   29.91R                  
NWS MEMPHIS      N/A     75 N/A N/A MISG        N/A                   
JACKSON        CLOUDY    74  68  81 S8        29.94R                  
DYERSBURG      LGT RAIN  66  64  93 NW9       29.95R                  
$$

TNZ008-025-027-028-033-062-065-066-221400-
NORTH MIDDLE TENNESSEE
  
CITY           SKY/WX    TMP DP  RH WIND       PRES   REMARKS
NASHVILLE      CLOUDY    77  64  64 SW15G22   30.01R                  
CLARKSVILLE    FAIR      75  65  70 S17G23    29.95R                  
SMYRNA         FAIR      76  67  73 SW8       30.02R                  
CROSSVILLE     FAIR      72  62  71 S6        30.10R                  
$$

TNZ061-075-076-078-094-096-097-221400-
SOUTH MIDDLE TENNESSEE
  
CITY           SKY/WX    TMP DP  RH WIND       PRES   REMARKS
$$

TNZ017-018-042-046-047-221400-
NORTHEAST TENNESSEE
  
CITY           SKY/WX    TMP DP  RH WIND       PRES   REMARKS
TRI CITIES     FAIR      73  60  63 CALM      30.12S                  
$$

TNZ012-013-036-069-073-074-221400-
CENTRAL EAST TENNESSEE
  
CITY           SKY/WX    TMP DP  RH WIND       PRES   REMARKS
KNOXVILLE      FAIR      73  62  68 NW5       30.07R                  
OAK RIDGE      PTSUNNY   70  60  70 E3        30.08S                  
$$

TNZ083-085-099-221400-
SOUTHEAST TENNESSEE
  
CITY           SKY/WX    TMP DP  RH WIND       PRES   REMARKS
CHATTANOOGA    FAIR      75  65  70 S5        30.06S                  
$$

SKY/WX REPORTED AS FAIR MEANS FEW OR NO CLOUDS BELOW
12 THOUSAND FEET.